This is the latest recevied weather packets stored in our database for station/object AF9W-5. If no packets are shown the sender has not sent any weather packets the latest 10 day(s).
| Time | Temp. | Humidity | Pressure | Rain* | Wind** | Luminosity | Snow |
|---|---|---|---|---|---|---|---|
| 1777715576 | 18.33° C | 31% | 1013.2 hPa | 0 mm | - | 0 W/m² | - |
| 1777715274 | 18.33° C | 31% | 1013.2 hPa | 0 mm | - | 0 W/m² | - |
| 1777714971 | 18.33° C | 31% | 1013.1 hPa | 0 mm | - | 0 W/m² | - |
| 1777714669 | 18.33° C | 30% | 1013.2 hPa | 0 mm | - | 0 W/m² | - |
| 1777714367 | 18.89° C | 30% | 1013.3 hPa | 0 mm | - | 0 W/m² | - |
| 1777714064 | 18.33° C | 30% | 1013.1 hPa | 0 mm | - | 0 W/m² | - |
| 1777713762 | 18.89° C | 32% | 1012.9 hPa | 0 mm | - | 0 W/m² | - |
| 1777713459 | 18.89° C | 31% | 1013.1 hPa | 0 mm | - | 0 W/m² | - |
| 1777713155 | 17.22° C | 33% | 1013.3 hPa | 0 mm | - | 0 W/m² | - |
| 1777712852 | 17.22° C | 33% | 1013.3 hPa | 0 mm | - | 0 W/m² | - |
| 1777712549 | 17.22° C | 33% | 1013.3 hPa | 0 mm | - | 0 W/m² | - |
| 1777712246 | 16.67° C | 34% | 1013 hPa | 0 mm | - | 0 W/m² | - |
| 1777711942 | 16.67° C | 34% | 1013.1 hPa | 0 mm | - | 0 W/m² | - |
| 1777711640 | 16.67° C | 34% | 1013.1 hPa | 0 mm | - | 0 W/m² | - |
| 1777711340 | 17.22° C | 34% | 1013 hPa | 0 mm | - | 0 W/m² | - |
| 1777711036 | 17.22° C | 34% | 1013.3 hPa | 0 mm | - | 0 W/m² | - |
| 1777710733 | 17.22° C | 34% | 1013 hPa | 0 mm | - | 0 W/m² | - |
| 1777710431 | 17.22° C | 33% | 1013.3 hPa | 0 mm | - | 0 W/m² | - |
| 1777710127 | 17.22° C | 33% | 1013.1 hPa | 0 mm | - | 0 W/m² | - |
| 1777709825 | 16.67° C | 34% | 1013.2 hPa | 0 mm | - | 0 W/m² | - |
| 1777709522 | 16.11° C | 35% | 1013.2 hPa | 0 mm | - | 0 W/m² | - |
| 1777709220 | 16.67° C | 36% | 1013.2 hPa | 0 mm | - | 0 W/m² | - |
| 1777708917 | 16.67° C | 35% | 1013.3 hPa | 0 mm | - | 0 W/m² | - |
| 1777708615 | 17.22° C | 34% | 1013.2 hPa | 0 mm | - | 0 W/m² | - |
| 1777708312 | 16.67° C | 34% | 1013.2 hPa | 0 mm | - | 0 W/m² | - |
* Rain latest hour (hover to see other rain measurements)
** Current wind speed in m/s (hover to see current wind gust speed)